FW2294 Weather Reports


time (UTC)temp
C
wind
direction
speed
KPH
gust
KPH
rain 1hr
cm
rain 24hr
cm
rain mn
cm
humidity
%
barometer
mb
20260510192818 32 155 0.0 1.6 0.00 0.00 0.00 28 1011.5
20260510192313 33 92 1.6 3.2 0.00 0.00 0.00 28 1011.4
20260510191810 32 170 1.6 1.6 0.00 0.00 0.00 28 1011.4
20260510191305 32 164 1.6 3.2 0.00 0.00 0.00 28 1011.4
20260510190804 31 161 0.0 1.6 0.00 0.00 0.00 33 1011.5
20260510190301 31 229 8.0 11.3 0.00 0.00 0.00 28 1011.7
20260510185757 31 166 1.6 8.0 0.00 0.00 0.00 31 1011.7
20260510185255 31 162 1.6 3.2 0.00 0.00 0.00 32 1011.8
20260510184752 31 228 4.8 8.0 0.00 0.00 0.00 30 1011.8
20260510184249 32 154 1.6 1.6 0.00 0.00 0.00 30 1011.8
20260510183743 32 156 0.0 1.6 0.00 0.00 0.00 30 1011.7
20260510183350 32 169 1.6 9.7 0.00 0.00 0.00 32 1028.6
20260510183238 31 197 0.0 1.6 0.00 0.00 0.00 29 1011.8
20260510182735 31 152 1.6 3.2 0.00 0.00 0.00 29 1011.9
20260510182230 31 169 1.6 3.2 0.00 0.00 0.00 31 1012.0
20260510181727 31 181 1.6 1.6 0.00 0.00 0.00 32 1012.1
20260510181225 30 159 1.6 1.6 0.00 0.00 0.00 32 1012.0
20260510180721 29 158 1.6 4.8 0.00 0.00 0.00 34 1012.0
20260510180218 30 130 3.2 4.8 0.00 0.00 0.00 33 1012.3
20260510175714 30 177 3.2 4.8 0.00 0.00 0.00 33 1012.3
20260510175210 30 178 1.6 4.8 0.00 0.00 0.00 31 1012.1
20260510174707 31 146 1.6 4.8 0.00 0.00 0.00 33 1012.1
20260510174205 31 149 1.6 4.8 0.00 0.00 0.00 32 1012.2
20260510173701 31 147 0.0 0.0 0.00 0.00 0.00 34 1012.1
20260510173351 31 139 0.0 9.7 0.00 0.00 0.00 30 1029.0
20260510173157 30 174 3.2 3.2 0.00 0.00 0.00 32 1012.0
20260510172652 31 178 1.6 1.6 0.00 0.00 0.00 32 1012.0
20260510172149 31 161 1.6 3.2 0.00 0.00 0.00 32 1012.1
20260510171646 30 133 0.0 1.6 0.00 0.00 0.00 31 1012.1
20260510171143 29 144 0.0 0.0 0.00 0.00 0.00 37 1012.2
20260510170639 29 134 0.0 1.6 0.00 0.00 0.00 36 1012.4
20260510170136 30 120 0.0 0.0 0.00 0.00 0.00 35 1012.5
20260510165631 30 148 0.0 1.6 0.00 0.00 0.00 32 1012.4
20260510165127 31 144 0.0 0.0 0.00 0.00 0.00 34 1012.5
20260510164625 30 152 1.6 1.6 0.00 0.00 0.00 33 1012.6
20260510164122 30 168 0.0 1.6 0.00 0.00 0.00 34 1012.5
20260510163617 31 95 1.6 3.2 0.00 0.00 0.00 32 1012.5
20260510163352 31 156 0.0 4.8 0.00 0.00 0.00 32 1029.6
20260510163114 30 144 0.0 0.0 0.00 0.00 0.00 35 1012.7
20260510162608 29 141 1.6 1.6 0.00 0.00 0.00 34 1012.7
20260510162105 30 156 3.2 3.2 0.00 0.00 0.00 35 1012.6
20260510161600 31 151 0.0 1.6 0.00 0.00 0.00 32 1012.7
20260510161058 30 145 0.0 1.6 0.00 0.00 0.00 34 1012.7
20260510160555 30 163 0.0 0.0 0.00 0.00 0.00 35 1012.7
20260510160054 30 93 1.6 1.6 0.00 0.00 0.00 33 1012.8
20260510155551 30 163 1.6 1.6 0.00 0.00 0.00 34 1012.9
20260510155048 29 149 0.0 1.6 0.00 0.00 0.00 35 1012.8
20260510154543 29 143 1.6 1.6 0.00 0.00 0.00 36 1012.9
20260510154039 28 150 0.0 1.6 0.00 0.00 0.00 40 1013.0
20260510153533 28 118 0.0 4.8 0.00 0.00 0.00 39 1013.0
20260510153351 29 111 0.0 4.8 0.00 0.00 0.00 38 1029.9
20260510153031 28 210 4.8 4.8 0.00 0.00 0.00 36 1013.0
20260510152528 28 137 0.0 3.2 0.00 0.00 0.00 39 1013.0
20260510152024 30 115 0.0 1.6 0.00 0.00 0.00 37 1013.0
20260510151521 30 145 0.0 3.2 0.00 0.00 0.00 37 1013.0
20260510151018 30 140 0.0 0.0 0.00 0.00 0.00 36 1013.1
20260510150513 28 138 0.0 1.6 0.00 0.00 0.00 38 1013.3
20260510150010 29 142 0.0 3.2 0.00 0.00 0.00 37 1013.3
20260510145507 31 139 0.0 0.0 0.00 0.00 0.00 33 1013.0
20260510145003 29 141 0.0 0.0 0.00 0.00 0.00 35 1013.0
20260510144500 27 138 0.0 1.6 0.00 0.00 0.00 36 1012.9
20260510143955 27 139 0.0 3.2 0.00 0.00 0.00 35 1012.8
20260510143451 27 139 0.0 0.0 0.00 0.00 0.00 39 1012.9
20260510143351 28 136 0.0 6.4 0.00 0.00 0.00 39 1029.9
20260510142948 27 221 6.4 8.0 0.00 0.00 0.00 39 1012.9
20260510142445 28 169 1.6 3.2 0.00 0.00 0.00 38 1012.9
20260510141941 28 150 1.6 3.2 0.00 0.00 0.00 41 1012.8
20260510141438 28 148 1.6 3.2 0.00 0.00 0.00 38 1012.7
20260510140935 28 143 0.0 1.6 0.00 0.00 0.00 40 1012.8
20260510140432 28 117 1.6 1.6 0.00 0.00 0.00 44 1012.7
20260510135930 27 133 0.0 0.0 0.00 0.00 0.00 43 1012.6
20260510135427 27 125 0.0 1.6 0.00 0.00 0.00 44 1012.6
20260510134924 27 141 0.0 0.0 0.00 0.00 0.00 47 1012.5
20260510134420 28 164 1.6 3.2 0.00 0.00 0.00 45 1012.5
20260510133917 28 134 0.0 0.0 0.00 0.00 0.00 45 1012.6
20260510133413 27 138 0.0 0.0 0.00 0.00 0.00 49 1012.7
20260510133348 27 138 0.0 3.2 0.00 0.00 0.00 49 1029.7
20260510132908 26 135 0.0 0.0 0.00 0.00 0.00 50 1012.8
20260510132407 26 131 0.0 0.0 0.00 0.00 0.00 51 1012.9
20260510131903 24 135 0.0 0.0 0.00 0.00 0.00 54 1012.8
20260510131401 22 148 0.0 0.0 0.00 0.00 0.00 63 1012.7
20260510130857 21 155 1.6 3.2 0.00 0.00 0.00 71 1012.7
20260510130355 18 128 1.6 1.6 0.00 0.00 0.00 79 1012.5
20260510125851 17 141 0.0 1.6 0.00 0.00 0.00 99 1012.4
20260510125347 16 135 0.0 1.6 0.00 0.00 0.00 99 1012.4
20260510124844 16 134 0.0 0.0 0.00 0.00 0.00 99 1012.4
20260510124341 16 142 0.0 0.0 0.00 0.00 0.00 99 1012.6
20260510123837 16 142 0.0 0.0 0.00 0.00 0.00 99 1012.4
20260510123348 16 154 0.0 0.0 0.00 0.00 0.00 99 1029.6
20260510123332 15 151 0.0 0.0 0.00 0.00 0.00 99 1012.4
20260510122829 15 141 0.0 0.0 0.00 0.00 0.00 99 1012.4
20260510122325 15 138 0.0 0.0 0.00 0.00 0.00 99 1012.3
20260510121822 15 138 0.0 0.0 0.00 0.00 0.00 99 1012.1
20260510121319 15 139 0.0 0.0 0.00 0.00 0.00 99 1012.1
20260510120816 14 139 0.0 0.0 0.00 0.00 0.00 99 1012.1
20260510120313 14 137 0.0 0.0 0.00 0.00 0.00 99 1012.2
20260510120121 13 145 0.0 0.0 0.00 0.00 0.00 99 1028.9
20260510115808 14 140 0.0 0.0 0.00 0.00 0.00 99 1012.1
20260510115307 13 143 0.0 0.0 0.00 0.00 0.00 99 1011.9
20260510114802 13 143 0.0 0.0 0.00 0.00 0.00 99 1011.9
20260510114259 13 144 0.0 0.0 0.00 0.00 0.00 99 1011.9
20260510113759 13 144 0.0 0.0 0.00 0.00 0.00 99 1011.8
20260510113257 13 143 0.0 0.0 0.00 0.00 0.00 99 1011.7
20260510112753 13 143 0.0 0.0 0.00 0.00 0.00 99 1011.7
20260510112250 13 144 0.0 0.0 0.00 0.00 0.00 99 1011.7
20260510111746 12 144 0.0 0.0 0.00 0.00 0.00 99 1011.5
20260510111243 12 144 0.0 0.0 0.00 0.00 0.00 99 1011.2
20260510110742 12 144 0.0 0.0 0.00 0.00 0.00 99 1011.2
20260510110241 12 144 0.0 0.0 0.00 0.00 0.00 99 1011.3
20260510105740 12 143 0.0 0.0 0.00 0.00 0.00 99 1011.2
20260510105235 12 149 0.0 0.0 0.00 0.00 0.00 99 1011.1
20260510104732 12 145 0.0 0.0 0.00 0.00 0.00 99 1011.1
20260510104230 12 147 0.0 0.0 0.00 0.00 0.00 99 1011.0
20260510103726 12 147 0.0 0.0 0.00 0.00 0.00 99 1010.7
20260510103346 13 147 0.0 1.6 0.00 0.00 0.00 99 1028.0
20260510103223 12 147 0.0 0.0 0.00 0.00 0.00 99 1010.8
20260510102723 12 148 0.0 0.0 0.00 0.00 0.00 99 1010.7
20260510102218 12 147 0.0 0.0 0.00 0.00 0.00 99 1010.6
20260510101716 12 146 0.0 0.0 0.00 0.00 0.00 99 1010.7
20260510101215 12 149 0.0 0.0 0.00 0.00 0.00 99 1010.6
20260510100710 13 164 0.0 0.0 0.00 0.00 0.00 99 1010.6
20260510100209 13 159 0.0 0.0 0.00 0.00 0.00 99 1010.4
20260510095704 13 160 0.0 0.0 0.00 0.00 0.00 99 1010.2
20260510095159 12 157 0.0 1.6 0.00 0.00 0.00 99 1010.1
20260510094657 12 145 0.0 0.0 0.00 0.00 0.00 99 1010.1
20260510094154 13 145 0.0 0.0 0.00 0.00 0.00 99 1010.1
20260510093650 13 145 0.0 0.0 0.00 0.00 0.00 99 1010.2
20260510093345 13 145 0.0 0.0 0.00 0.00 0.00 99 1027.2
20260510093147 13 145 0.0 0.0 0.00 0.00 0.00 99 1010.0
20260510092643 13 145 0.0 0.0 0.00 0.00 0.00 99 1010.0
20260510092138 13 145 0.0 0.0 0.00 0.00 0.00 99 1010.1
20260510091635 13 147 0.0 0.0 0.00 0.00 0.00 99 1010.0
20260510091131 13 147 0.0 0.0 0.00 0.00 0.00 99 1009.9
20260510090628 13 146 0.0 0.0 0.00 0.00 0.00 99 1009.9
20260510090125 13 149 0.0 0.0 0.00 0.00 0.00 99 1010.0
20260510085620 13 149 0.0 0.0 0.00 0.00 0.00 99 1009.7
20260510085115 13 149 0.0 0.0 0.00 0.00 0.00 98 1009.6
20260510084612 13 144 0.0 0.0 0.00 0.00 0.00 98 1009.5
20260510084108 13 144 0.0 0.0 0.00 0.00 0.00 98 1009.5
20260510083605 13 144 0.0 0.0 0.00 0.00 0.00 98 1009.6
20260510083101 13 141 0.0 0.0 0.00 0.00 0.00 98 1009.8
20260510082558 13 144 0.0 0.0 0.00 0.00 0.00 97 1009.7
20260510082054 13 144 0.0 0.0 0.00 0.00 0.00 97 1009.7
20260510081549 13 144 0.0 0.0 0.00 0.00 0.00 97 1009.7
20260510081045 13 144 0.0 0.0 0.00 0.00 0.00 97 1009.6
20260510080544 13 144 0.0 0.0 0.00 0.00 0.00 97 1009.6
20260510080041 13 144 0.0 0.0 0.00 0.00 0.00 97 1009.6
20260510075539 14 144 0.0 0.0 0.00 0.00 0.00 96 1009.7
20260510075035 14 144 0.0 0.0 0.00 0.00 0.00 96 1009.6
20260510074533 14 144 0.0 0.0 0.00 0.00 0.00 96 1009.7
20260510074028 14 144 0.0 0.0 0.00 0.00 0.00 96 1009.5
20260510073524 15 144 0.0 0.0 0.00 0.00 0.00 95 1009.5
20260510073344 15 144 0.0 1.6 0.00 0.00 0.00 95 1026.4
20260510073022 15 144 0.0 0.0 0.00 0.00 0.00 95 1009.4
20260510072518 15 144 0.0 0.0 0.00 0.00 0.00 95 1009.3
20260510072014 15 144 0.0 0.0 0.00 0.00 0.00 95 1009.4
20260510071510 15 144 0.0 0.0 0.00 0.00 0.00 94 1009.4
20260510071009 15 145 0.0 0.0 0.00 0.00 0.00 94 1009.5
20260510070505 15 145 0.0 0.0 0.00 0.00 0.00 94 1009.4
20260510070001 16 145 0.0 0.0 0.00 0.00 0.00 94 1009.4
20260510065458 16 146 0.0 0.0 0.00 0.00 0.00 94 1009.4
20260510064954 16 148 0.0 1.6 0.00 0.00 0.00 93 1009.4
20260510064451 16 149 0.0 0.0 0.00 0.00 0.00 93 1009.5
20260510063948 16 152 0.0 0.0 0.00 0.00 0.00 92 1009.4
20260510063444 16 151 0.0 1.6 0.00 0.00 0.00 92 1009.5
20260510063349 17 150 0.0 3.2 0.00 0.00 0.00 92 1026.5
20260510062943 16 152 0.0 0.0 0.00 0.00 0.00 92 1009.3
20260510062443 16 156 0.0 1.6 0.00 0.00 0.00 92 1009.4
20260510061938 16 150 0.0 0.0 0.00 0.00 0.00 91 1009.6
20260510061435 16 167 0.0 1.6 0.00 0.00 0.00 91 1009.5
20260510060931 16 151 0.0 0.0 0.00 0.00 0.00 91 1009.5
20260510060428 16 148 0.0 0.0 0.00 0.00 0.00 91 1009.6
20260510055924 16 147 0.0 0.0 0.00 0.00 0.00 90 1009.8
20260510055421 17 147 0.0 0.0 0.00 0.00 0.00 90 1009.7
20260510054919 17 147 0.0 0.0 0.00 0.00 0.00 89 1009.7
20260510054414 17 147 0.0 0.0 0.00 0.00 0.00 89 1009.6
20260510053909 17 156 0.0 0.0 0.00 0.00 0.00 89 1009.6
20260510053405 17 155 0.0 0.0 0.00 0.00 0.00 89 1009.8
20260510053344 17 147 0.0 1.6 0.00 0.00 0.00 89 1026.6
20260510052901 17 165 0.0 0.0 0.00 0.00 0.00 89 1009.6
20260510052357 17 150 0.0 0.0 0.00 0.00 0.00 89 1009.8
20260510051854 16 157 1.6 1.6 0.00 0.00 0.00 91 1009.8
20260510051350 16 150 0.0 0.0 0.00 0.00 0.00 92 1009.8
20260510050847 16 164 0.0 0.0 0.00 0.00 0.00 92 1009.7
20260510050344 16 161 0.0 0.0 0.00 0.00 0.00 93 1009.8
20260510045841 16 147 0.0 0.0 0.00 0.00 0.00 92 1009.8
20260510045338 16 145 0.0 0.0 0.00 0.00 0.00 92 1009.8
20260510044835 16 144 0.0 0.0 0.00 0.00 0.00 93 1009.8
20260510044332 16 147 0.0 0.0 0.00 0.00 0.00 93 1009.9
20260510043828 15 149 0.0 0.0 0.00 0.00 0.00 93 1010.0
20260510043344 16 145 0.0 0.0 0.00 0.00 0.00 92 1026.7
20260510043324 15 145 0.0 0.0 0.00 0.00 0.00 92 1009.8
20260510042822 15 144 0.0 0.0 0.00 0.00 0.00 92 1009.8
20260510042318 15 143 0.0 0.0 0.00 0.00 0.00 91 1009.6
20260510041814 15 142 0.0 0.0 0.00 0.00 0.00 91 1009.8
20260510041312 15 142 0.0 0.0 0.00 0.00 0.00 91 1009.7
20260510040809 16 143 0.0 0.0 0.00 0.00 0.00 91 1009.7
20260510040305 15 143 0.0 0.0 0.00 0.00 0.00 91 1009.6
20260510035801 15 146 0.0 0.0 0.00 0.00 0.00 92 1009.8
20260510035257 15 143 0.0 0.0 0.00 0.00 0.00 91 1009.7
20260510034752 15 141 0.0 0.0 0.00 0.00 0.00 91 1009.4
20260510034250 15 144 0.0 0.0 0.00 0.00 0.00 91 1009.7
20260510033747 15 143 0.0 0.0 0.00 0.00 0.00 90 1009.5
20260510033345 16 141 0.0 0.0 0.00 0.00 0.00 90 1026.3
20260510033244 15 141 0.0 0.0 0.00 0.00 0.00 90 1009.5
20260510032740 15 138 0.0 0.0 0.00 0.00 0.00 90 1009.5
20260510032237 15 142 0.0 0.0 0.00 0.00 0.00 90 1009.4
20260510031732 15 143 0.0 0.0 0.00 0.00 0.00 90 1009.5
20260510031228 15 143 0.0 0.0 0.00 0.00 0.00 90 1009.4
20260510030727 15 141 0.0 0.0 0.00 0.00 0.00 90 1009.4
20260510030225 15 138 0.0 0.0 0.00 0.00 0.00 89 1009.5
20260510025722 16 146 0.0 0.0 0.00 0.00 0.00 89 1009.4
20260510025220 16 146 0.0 0.0 0.00 0.00 0.00 88 1009.4
20260510024716 16 144 0.0 0.0 0.00 0.00 0.00 88 1009.3
20260510024213 16 145 0.0 0.0 0.00 0.00 0.00 88 1009.4
20260510023708 16 144 0.0 0.0 0.00 0.00 0.00 87 1009.2
20260510023345 16 144 0.0 0.0 0.00 0.00 0.00 87 1026.1
20260510023206 16 144 0.0 0.0 0.00 0.00 0.00 87 1009.4
20260510022702 16 144 0.0 0.0 0.00 0.00 0.00 86 1009.1
20260510022156 16 145 0.0 0.0 0.00 0.00 0.00 86 1009.1
20260510021652 16 148 0.0 0.0 0.00 0.00 0.00 86 1009.2
20260510021149 16 145 0.0 0.0 0.00 0.00 0.00 85 1009.0
20260510020644 16 145 0.0 0.0 0.00 0.00 0.00 85 1009.0
20260510020139 16 146 0.0 0.0 0.00 0.00 0.00 85 1008.9
20260510015635 16 145 0.0 0.0 0.00 0.00 0.00 85 1008.9
20260510015132 16 150 0.0 0.0 0.00 0.00 0.00 85 1008.7
20260510014627 16 143 0.0 0.0 0.00 0.00 0.00 84 1008.7
20260510014125 16 145 0.0 0.0 0.00 0.00 0.00 84 1008.7
20260510013625 16 146 0.0 0.0 0.00 0.00 0.00 84 1008.5
20260510013345 17 147 0.0 0.0 0.00 0.00 0.00 84 1025.2
20260510013121 16 145 0.0 0.0 0.00 0.00 0.00 83 1008.4
20260510012620 17 143 0.0 0.0 0.00 0.00 0.00 82 1008.4
20260510012117 17 143 0.0 0.0 0.00 0.00 0.00 82 1008.6
20260510011616 17 144 0.0 0.0 0.00 0.00 0.00 81 1008.5
20260510011113 17 143 0.0 0.0 0.00 0.00 0.00 81 1008.6
20260510010609 17 143 0.0 0.0 0.00 0.00 0.00 81 1008.4
20260510010107 17 142 0.0 0.0 0.00 0.00 0.00 81 1008.1
20260510005602 17 142 0.0 0.0 0.00 0.00 0.00 80 1008.2
20260510005100 17 144 0.0 0.0 0.00 0.00 0.00 78 1008.3
20260510004557 17 146 0.0 0.0 0.00 0.00 0.00 78 1008.3
20260510004055 18 146 0.0 0.0 0.00 0.00 0.00 78 1008.3
20260510003552 18 147 0.0 0.0 0.00 0.00 0.00 76 1008.2
20260510003346 18 146 0.0 0.0 0.00 0.00 0.00 76 1024.8
20260510003047 18 143 0.0 0.0 0.00 0.00 0.00 75 1007.9
20260510002543 18 142 0.0 0.0 0.00 0.00 0.00 74 1008.1
20260510002040 18 142 0.0 0.0 0.00 0.00 0.00 73 1007.9
20260510001537 19 143 0.0 0.0 0.00 0.00 0.00 72 1007.9
20260510001036 19 143 0.0 0.0 0.00 0.00 0.00 71 1007.7
20260510000530 20 142 0.0 0.0 0.00 0.00 0.00 70 1007.6
20260510000027 20 141 0.0 0.0 0.00 0.00 0.00 69 1007.7
20260509235524 20 138 0.0 0.0 0.00 0.00 0.00 68 1007.7
20260509235021 20 143 0.0 0.0 0.00 0.00 0.00 68 1007.6
20260509234517 20 141 0.0 0.0 0.00 0.00 0.00 67 1007.4
20260509234015 20 141 0.0 0.0 0.00 0.00 0.00 67 1007.5
20260509233512 21 141 0.0 0.0 0.00 0.00 0.00 66 1007.3
20260509233344 21 141 0.0 0.0 0.00 0.00 0.00 66 1024.0
20260509233010 21 142 0.0 0.0 0.00 0.00 0.00 65 1007.4
20260509232506 21 143 0.0 0.0 0.00 0.00 0.00 64 1007.4
20260509232002 21 141 0.0 0.0 0.00 0.00 0.00 62 1007.5
20260509231459 22 143 0.0 0.0 0.00 0.00 0.00 61 1007.5
20260509230957 22 143 0.0 0.0 0.00 0.00 0.00 60 1007.4
20260509230453 22 140 0.0 0.0 0.00 0.00 0.00 58 1007.4
20260509225950 23 141 0.0 0.0 0.00 0.00 0.00 56 1007.3
20260509225446 23 143 0.0 0.0 0.00 0.00 0.00 55 1007.4
20260509224942 23 145 0.0 0.0 0.00 0.00 0.00 54 1007.4
20260509224437 23 146 0.0 0.0 0.00 0.00 0.00 52 1007.4
20260509223935 23 145 0.0 0.0 0.00 0.00 0.00 51 1007.4
20260509223431 23 147 0.0 1.6 0.00 0.00 0.00 50 1007.4
20260509223345 24 147 0.0 12.9 0.00 0.00 0.00 50 1024.0
20260509222929 23 155 1.6 1.6 0.00 0.00 0.00 51 1007.4
20260509222424 23 156 0.0 1.6 0.00 0.00 0.00 50 1007.3
20260509221920 23 165 0.0 3.2 0.00 0.00 0.00 49 1007.1
20260509221417 23 156 0.0 3.2 0.00 0.00 0.00 50 1007.2
20260509220913 24 145 0.0 0.0 0.00 0.00 0.00 52 1007.0
20260509220408 24 159 0.0 0.0 0.00 0.00 0.00 50 1007.1
20260509215904 24 165 1.6 1.6 0.00 0.00 0.00 49 1007.2
20260509215400 24 153 0.0 4.8 0.00 0.00 0.00 48 1007.1
20260509214858 24 151 1.6 8.0 0.00 0.00 0.00 47 1007.2
20260509214355 25 173 6.4 8.0 0.00 0.00 0.00 46 1007.2
20260509213852 25 190 3.2 12.9 0.00 0.00 0.00 47 1006.9
20260509213347 25 169 1.6 1.6 0.00 0.00 0.00 47 1007.1
20260509213345 25 160 1.6 16.1 0.00 0.00 0.00 49 1023.8
20260509212845 25 165 1.6 1.6 0.00 0.00 0.00 46 1006.9
20260509212343 26 163 3.2 4.8 0.00 0.00 0.00 44 1006.9
20260509211838 27 186 1.6 4.8 0.00 0.00 0.00 43 1006.8
20260509211334 27 148 1.6 8.0 0.00 0.00 0.00 41 1006.8
20260509210831 26 176 0.0 3.2 0.00 0.00 0.00 42 1006.8
20260509210329 27 128 3.2 4.8 0.00 0.00 0.00 41 1006.8
20260509205828 27 186 1.6 4.8 0.00 0.00 0.00 41 1007.1
20260509205323 26 234 3.2 3.2 0.00 0.00 0.00 43 1006.8
20260509204820 26 161 1.6 8.0 0.00 0.00 0.00 45 1006.9
20260509204316 27 146 0.0 3.2 0.00 0.00 0.00 44 1007.0
20260509203812 26 185 1.6 4.8 0.00 0.00 0.00 45 1006.9
20260509203345 26 177 1.6 12.9 0.00 0.00 0.00 46 1023.8
20260509203310 26 159 0.0 3.2 0.00 0.00 0.00 48 1007.0
20260509202806 25 167 3.2 3.2 0.00 0.00 0.00 48 1007.0
20260509202306 25 153 0.0 8.0 0.00 0.00 0.00 48 1007.1
20260509201801 26 170 1.6 1.6 0.00 0.00 0.00 47 1007.2
20260509201258 27 159 1.6 1.6 0.00 0.00 0.00 44 1007.3
20260509200754 26 153 0.0 1.6 0.00 0.00 0.00 46 1007.2
20260509200250 26 160 4.8 8.0 0.00 0.00 0.00 45 1007.2
20260509195746 27 243 3.2 8.0 0.00 0.00 0.00 44 1007.2
20260509195242 27 151 4.8 4.8 0.00 0.00 0.00 44 1007.3
20260509194736 27 193 1.6 8.0 0.00 0.00 0.00 45 1007.4
20260509194233 26 171 1.6 1.6 0.00 0.00 0.00 45 1007.5
20260509193730 28 229 6.4 12.9 0.00 0.00 0.00 41 1007.5
20260509193344 27 157 0.0 9.7 0.00 0.00 0.00 47 1024.1
20260509193229 26 261 1.6 3.2 0.00 0.00 0.00 43 1007.6